Tracking 29892 objects as of 21-Nov-2024
HD Live streaming from Space Station
objects crossing your sky now

STARLINK-30446

Track STARLINK-30446 now!
10-day predictions
STARLINK-30446 is classified as:


NORAD ID: 57872
Int'l Code: 2023-144J
Perigee: 565.2 km
Apogee: 567.2 km
Inclination: 43.0 °
Period: 95.8 minutes
Semi major axis: 6937 km
RCS: Unknown
Launch date: September 16, 2023
Source: United States (US)
Launch site: AIR FORCE EASTERN TEST RANGE (AFETR)
Your satellite tracking list
Your tracking list is empty




NASA's NSSDC Master Catalog

Two Line Element Set (TLE):
1 57872U 23144J   24325.49665403  .00000474  00000-0  50187-4 0  9996
2 57872  43.0052 330.9916 0001403 267.4173  92.6509 15.02542676 66128
Source of the keplerian elements: AFSPC